Weather History for LIMH - November, 2012

Change the Weather History Date:

Wednesday, November 7, 2012

  Actual Average Record
Temperature  
Mean Temperature 16 °F -  
Max Temperature 25 °F 22 °F 35 °F (2006)
Min Temperature 6 °F 12 °F 1 °F (2004)
Degree Days  
Heating Degree Days 50    
Moisture  
Dew Point 2 °F    
Average Humidity 50    
Maximum Humidity 86    
Minimum Humidity 16    
Precipitation  
Precipitation 0.00 in - - ()
Sea Level Pressure  
Sea Level Pressure 30.26 in    
Wind  
Wind Speed 26 mph ()    
Max Wind Speed 43 mph    
Max Gust Speed -    
Visibility 8.8 miles    
Events      
Averages and records for this station are not official NWS values.
T = Trace of Precipitation, MM = Missing Value Source: Averaged Metar Reports

Daily Weather History Graph

Daily Weather History Graph

Search for Another Location

Airport or City:

Trip Planner

Search our weather history database for the weather conditions in past years. The results will help you decide how hot, cold, wet, or windy it might be!

Date:

Astronomy

Nov. 07, 2012 Rise Set
Actual Time 7:18 AM CET 5:06 PM CET
Civil Twilight 6:46 AM CET 5:38 PM CET
Nautical Twilight 6:11 AM CET 6:14 PM CET
Astronomical Twilight 5:36 AM CET 6:48 PM CET
Moon No Moon Rise 1:27 PM CET (11/7)
Length of Visible Light 10h 51m
Length of Day
9h 48m
Last Quarter, 46% of the Moon is Illuminated
Nov 7
Last Quarter
Nov 13
New
Nov 20
First Quarter
Nov 28
Full
Dec 6
Last Quarter

Hourly Weather History & Observations

Time (CET) Temp. Windchill Dew Point Humidity Pressure Visibility Wind Dir Wind Speed Gust Speed Precip Events Conditions
12:55 AM 6.8 °F -17.6 °F -13.0 °F 40% 30.04 in - ENE 33.4 mph - N/A   Clear
1:00 AM 7 °F - -14 °F 22%  in 7 mi ENE 33.4 mph - -  
1:55 AM 10.4 °F -13.2 °F -18.4 °F 26% 30.04 in - ENE 35.7 mph - N/A   Clear
2:55 AM 10.4 °F -13.8 °F -18.4 °F 26% 30.06 in - ENE 38.0 mph - N/A   Clear
3:55 AM 12.2 °F -10.2 °F -13.0 °F 32% 30.06 in - ENE 33.4 mph - N/A   Clear
4:00 AM 13 °F - -13 °F 16%  in 7 mi ENE 33.4 mph - -  
4:55 AM 14.0 °F -9.8 °F -4.0 °F 45% 30.06 in - ENE 42.6 mph - N/A   Clear
5:55 AM 14.0 °F -9.3 °F 3.2 °F 62% 30.09 in - ENE 40.3 mph - N/A   Clear
7:00 AM 13 °F - 3 °F 52%  in 16 mi ENE 31.1 mph - -   Scattered Clouds
7:55 AM 12.2 °F -10.2 °F -2.2 °F 53% 30.15 in 6.2 mi ENE 33.4 mph - N/A   Scattered Clouds
8:55 AM 15.8 °F -5.8 °F 8.6 °F 73% 30.18 in 6.2 mi NE 35.7 mph - N/A   Scattered Clouds
9:55 AM 17.6 °F -3.8 °F 12.2 °F 79% 30.21 in 6.2 mi ENE 38.0 mph - N/A   Scattered Clouds
10:00 AM 17 °F - 13 °F 77%  in 19 mi ENE 38.0 mph - -   Partly Cloudy
10:55 AM 19.4 °F -1.3 °F 15.8 °F 86% 30.24 in 6.2 mi ENE 38.0 mph - N/A   Scattered Clouds
11:55 AM 19.4 °F 0.2 °F 15.8 °F 86% 30.27 in 6.2 mi ENE 31.1 mph - N/A   Scattered Clouds
12:55 PM 19.4 °F 1.8 °F 14.0 °F 80% 30.30 in 6.2 mi ENE 25.3 mph - N/A   Scattered Clouds
1:00 PM 19 °F - 15 °F 75%  in 31 mi ENE 25.3 mph - -   Partly Cloudy
1:55 PM 21.2 °F 5.2 °F 15.8 °F 80% 30.33 in - ENE 21.9 mph - N/A   Clear
2:55 PM 21.2 °F 6.8 °F 12.2 °F 68% 30.33 in - ENE 17.3 mph - N/A   Clear
3:55 PM 24.8 °F 15.3 °F 5.0 °F 43% 30.36 in - ENE 9.2 mph - N/A   Clear
4:00 PM 24 °F - 6 °F 31%  in 47 mi ENE 9.2 mph - -  
5:55 PM 24.8 °F 15.3 °F 3.2 °F 40% 30.39 in - ENE 9.2 mph - N/A   Clear
6:55 PM 23.0 °F 11.7 °F 1.4 °F 39% 30.39 in - South 11.5 mph - N/A   Clear
7:00 PM 24 °F - 2 °F 23%  in 12 mi South 11.5 mph - -  
7:55 PM 24.8 °F 13.4 °F 3.2 °F 40% 30.42 in - SSW 12.7 mph - N/A   Clear
8:55 PM 24.8 °F 15.3 °F 3.2 °F 40% 30.42 in - SSW 9.2 mph - N/A   Clear
9:55 PM 23.0 °F 11.7 °F 3.2 °F 43% 30.45 in - SSW 11.5 mph - N/A   Clear
10:00 PM 24 °F - 3 °F 26%  in 7 mi SSW 11.5 mph - -  
10:55 PM 23.0 °F 12.4 °F 3.2 °F 43% 30.45 in - South 10.4 mph - N/A   Clear
11:55 PM 23.0 °F 13.9 °F 3.2 °F 43% 30.42 in - SSW 8.1 mph - N/A   Clear